Hourly Data Report for September 03, 2020

SHEARWATER RCS
NOVA SCOTIA
Current Station Operator: ECCC - MSC

44°37'47.000" N
63°30'48.000" W
24.00 m
8205092
71264
AAW

Download Data

Hourly Data (September 2020)
Hourly Data Report for September 3, 2020
TIME Temp Definition
°C
Dew Point Definition
°C
Rel Hum Definition
%
Wind Dir Definition
10's deg

Wind Spd Definition
km/h
Visibility Definition
km
Stn Press Definition
kPa
Hmdx Definition


Wind Chill Definition


Weather Definition


00:00 15.9 14.5 91 14 10   101.18     LegendNANA
01:00 15.8 14.5 92 15 10   101.10     LegendNANA
02:00 15.7 14.6 93 17 8   101.05     LegendNANA
03:00 15.9 15.0 94 16 14   100.97     LegendNANA
04:00 16.1 14.9 93 17 11   100.92     LegendNANA
05:00 16.1 15.0 93 17 16   100.90     LegendNANA
06:00 17.1 15.9 93 18 24   100.89     LegendNANA
07:00 17.1 16.1 94 17 19   100.88     LegendNANA
08:00 17.5 16.5 94 17 14   100.89     LegendNANA
09:00 18.1 17.0 94 18 16   100.90     LegendNANA
10:00 18.2 17.3 94 18 16   100.92     LegendNANA
11:00 19.0 18.2 95 19 13   100.89     LegendNANA
12:00 19.6 18.7 95 19 13   100.83     LegendNANA
13:00 19.4 18.5 94 18 12   100.82     LegendNANA
14:00 18.7 17.9 95 17 10   100.79     LegendNANA
15:00 19.4 18.5 95 18 13   100.78     LegendNANA
16:00 19.5 18.4 93 19 12   100.78     LegendNANA
17:00 18.1 17.0 93 16 11   100.78     LegendNANA
18:00 17.6 16.7 95 15 8   100.78     LegendNANA
19:00 17.5 16.8 96 16 11   100.77     LegendNANA
20:00 17.5 16.9 96 17 13   100.76     LegendNANA
21:00 17.6 17.0 96 16 16   100.73     LegendNANA
22:00 17.2 16.6 97 17 13   100.69     LegendNANA
23:00 17.4 16.9 97 16 13   100.65     LegendNANA

Notes on Data Quality.

Legend

  • E = Estimated
  • M = Missing
  • NA = Not Available*
  • [empty] = Indicates an unobserved value
Date modified: